ATMO2: Muddy Boggy Creek at Atoka

Data processed at Thu May 23 2019 23:50


All information presented herein is the property of the government of the United States of America and may be revised or deleted at any time without prior notice.
Dissemination of this information without the expressed written consent of the Public Affairs Office, Tulsa District U.S. Army Corps of Engineers is strictly prohibited.
These data are gathered electronically and, as presented, have not undergone any form of quality control. These data are not guaranteed to be valid or correct.
Go to home page.
Go to station list.
Go to home page.

Downstream station:


Previous Day
Next Day
Current Day
    
SHEF ID:       ATMO2     Muddy Boggy Creek at Atoka, OK
STATION TYPE:  

               PRECIP     STAGE  RIV-FLOW   VOLTAGE
                   in        ft       cfs      volt
              Ccp-Rev   Ccp-Rev   Ccp-Rev   Ccp-Rev
(US/Central)
05/23 00:00      0.00     23.72      3347     12.80
05/23 01:00      0.00     23.60      3225     12.80
05/23 02:00      0.00     23.46      3088     12.80
05/23 03:00      0.00     23.34      2974     12.70
05/23 04:00      0.00     23.19      2837     12.80
05/23 05:00      0.00     23.03      2697     12.80
05/23 06:00      0.00     22.84      2539     12.70
05/23 07:00      0.00     22.66      2396     12.90
05/23 08:00      0.00     22.46      2246     13.20
05/23 09:00      0.00     22.27      2110     13.30
05/23 10:00      0.00     22.06      1969     13.90
05/23 11:00      0.00     21.83      1824     13.70
05/23 12:00      0.00     21.61      1694     13.90
05/23 13:00      0.00     21.37      1561     13.80
05/23 14:00      0.00     21.14      1442     13.80
05/23 15:00      0.00     20.91      1331     13.80
05/23 16:00      0.00     20.67      1223     13.70
05/23 17:00      0.00     20.45      1131     13.70
05/23 18:00      0.00     20.24      1049     13.60
05/23 19:00      0.00     20.03       972     13.00
05/23 20:00      0.00     19.83       903     12.80
05/23 21:00      0.00     19.63       839     12.80
05/23 22:00      0.00     19.47       790     12.80
05/23 23:00      ----      ----      ----      ----